TimePST,TemperatureF,Dew PointF,Humidity,Sea Level PressureIn,VisibilityMPH,Wind Direction,Wind SpeedMPH,Gust SpeedMPH,PrecipitationIn,Events,Conditions,WindDirDegrees,DateUTC
12:01 AM,44.6,42.8,93,30.05,3.0,Variable,4.6,-,0.01,Rain,Light Rain,0,2012-12-07 08:01:00
12:17 AM,44.6,42.8,93,30.06,1.8,WSW,15.0,26.5,0.03,Rain,Rain,250,2012-12-07 08:17:00
12:24 AM,44.6,42.8,93,30.05,3.0,WSW,12.7,20.7,0.04,Rain,Light Rain,240,2012-12-07 08:24:00
12:53 AM,45.0,42.1,90,30.06,6.0,WSW,8.1,-,0.04,,Overcast,240,2012-12-07 08:53:00
1:53 AM,46.0,42.1,86,30.04,5.0,SW,10.4,-,N/A,,Overcast,230,2012-12-07 09:53:00
2:35 AM,46.4,42.8,87,30.03,5.0,WSW,12.7,-,N/A,,Haze,250,2012-12-07 10:35:00
2:53 AM,46.9,43.0,86,30.03,6.0,WSW,9.2,-,N/A,,Overcast,250,2012-12-07 10:53:00
3:17 AM,46.4,42.8,87,30.03,1.8,West,18.4,24.2,0.01,Rain,Rain,260,2012-12-07 11:17:00
3:28 AM,44.6,42.8,93,30.02,3.0,WSW,6.9,21.9,0.07,Rain,Light Rain,240,2012-12-07 11:28:00
3:53 AM,45.0,42.1,90,30.01,6.0,WSW,9.2,-,0.07,,Overcast,250,2012-12-07 11:53:00
4:34 AM,46.4,42.8,87,30.00,2.5,West,12.7,-,0.00,Rain,Rain,280,2012-12-07 12:34:00
4:42 AM,44.6,42.8,93,30.01,1.8,West,17.3,25.3,0.04,Rain,Light Rain,270,2012-12-07 12:42:00
4:50 AM,44.6,42.8,93,30.01,3.0,West,12.7,27.6,0.05,Rain,Light Rain,260,2012-12-07 12:50:00
4:51 AM,45.0,43.0,93,30.01,3.0,West,13.8,27.6,0.05,Rain,Light Rain,260,2012-12-07 12:51:00
4:58 AM,44.6,42.8,93,30.00,3.0,WSW,11.5,-,0.01,Rain,Light Rain,250,2012-12-07 12:58:00
5:35 AM,44.6,42.8,93,29.99,5.0,SSW,4.6,-,0.02,Rain,Light Rain,200,2012-12-07 13:35:00
5:53 AM,44.1,43.0,96,29.99,5.0,West,4.6,-,0.02,,Overcast,260,2012-12-07 13:53:00
6:01 AM,44.6,42.8,93,29.99,6.0,West,5.8,-,N/A,,Overcast,270,2012-12-07 14:01:00
6:29 AM,44.6,42.8,93,29.99,2.5,WSW,11.5,-,0.00,Rain,Rain,250,2012-12-07 14:29:00
6:39 AM,44.6,42.8,93,29.99,6.0,West,10.4,-,0.01,Rain,Light Rain,260,2012-12-07 14:39:00
6:53 AM,44.1,41.0,89,30.00,6.0,West,5.8,-,0.01,,Mostly Cloudy,270,2012-12-07 14:53:00
7:06 AM,44.6,41.0,87,30.00,6.0,Calm,Calm,-,N/A,,Mostly Cloudy,0,2012-12-07 15:06:00
7:32 AM,44.6,39.2,81,29.99,6.0,West,8.1,-,0.00,,Haze,270,2012-12-07 15:32:00
7:53 AM,44.1,39.9,85,30.00,6.0,WNW,11.5,17.3,0.00,Rain,Light Rain,290,2012-12-07 15:53:00
8:53 AM,44.1,39.0,82,30.01,3.0,West,10.4,-,0.01,Rain,Light Rain,270,2012-12-07 16:53:00
9:00 AM,42.8,39.2,87,30.01,1.8,NW,11.5,18.4,0.00,Rain,Rain,320,2012-12-07 17:00:00
9:08 AM,42.8,39.2,87,30.01,1.5,NW,11.5,17.3,0.02,Rain,Light Rain,310,2012-12-07 17:08:00
9:13 AM,42.8,39.2,87,30.01,3.0,West,4.6,-,0.02,Rain,Light Rain,280,2012-12-07 17:13:00
9:20 AM,42.8,39.2,87,30.01,5.0,West,8.1,-,0.02,,Overcast,280,2012-12-07 17:20:00
9:53 AM,43.0,37.9,82,30.02,5.0,West,8.1,-,0.02,Rain,Light Rain,280,2012-12-07 17:53:00
10:53 AM,44.1,37.0,76,30.05,5.0,NW,8.1,17.3,0.00,,Haze,310,2012-12-07 18:53:00
11:53 AM,43.0,37.0,80,30.06,4.0,WNW,12.7,19.6,0.01,Rain,Light Rain,290,2012-12-07 19:53:00
12:53 PM,46.0,37.0,71,30.06,5.0,WNW,12.7,18.4,0.00,,Haze,290,2012-12-07 20:53:00
1:53 PM,45.0,34.0,65,30.08,5.0,WNW,11.5,-,N/A,,Haze,290,2012-12-07 21:53:00
2:53 PM,44.1,33.1,65,30.10,5.0,NW,5.8,-,N/A,,Haze,320,2012-12-07 22:53:00
3:53 PM,43.0,33.1,68,30.10,5.0,NW,6.9,-,N/A,,Haze,310,2012-12-07 23:53:00
4:53 PM,43.0,33.1,68,30.12,7.0,NW,6.9,-,N/A,,Mostly Cloudy,310,2012-12-08 00:53:00
5:53 PM,39.9,37.0,89,30.13,7.0,Calm,Calm,-,0.01,,Mostly Cloudy,0,2012-12-08 01:53:00
6:51 PM,39.2,37.4,93,30.15,2.5,West,9.2,-,0.01,Rain,Light Rain,270,2012-12-08 02:51:00
6:53 PM,39.0,37.0,93,30.15,2.5,WNW,10.4,16.1,0.01,Rain,Light Rain,300,2012-12-08 02:53:00
7:12 PM,39.2,35.6,87,30.14,4.0,WSW,5.8,-,N/A,Rain,Light Rain,250,2012-12-08 03:12:00
7:53 PM,37.0,36.0,96,30.17,6.0,Calm,Calm,-,0.04,,Mostly Cloudy,0,2012-12-08 03:53:00
7:59 PM,37.4,37.4,100,30.16,2.5,Variable,5.8,-,0.01,Rain,Rain,0,2012-12-08 03:59:00
8:16 PM,39.2,37.4,93,30.16,3.0,WNW,3.5,-,N/A,Rain,Light Rain,290,2012-12-08 04:16:00
8:33 PM,37.4,37.4,100,30.15,7.0,Calm,Calm,-,0.03,,Overcast,0,2012-12-08 04:33:00
8:53 PM,37.9,37.0,97,30.16,6.0,SSE,3.5,-,0.03,,Mostly Cloudy,150,2012-12-08 04:53:00
9:53 PM,37.9,36.0,93,30.17,4.0,NW,3.5,-,0.02,Rain,Light Rain,310,2012-12-08 05:53:00
10:18 PM,39.2,35.6,87,30.16,6.0,Variable,4.6,-,0.00,Rain,Light Rain,0,2012-12-08 06:18:00
10:53 PM,37.0,36.0,96,30.17,7.0,ESE,3.5,-,0.00,,Partly Cloudy,110,2012-12-08 06:53:00
11:53 PM,37.9,36.0,93,30.18,6.0,East,3.5,-,0.01,,Overcast,100,2012-12-08 07:53:00